Volver al catálogo

STARLINK-32742

ActivoComunicacionesVLEO
NORAD 62605·PAYLOAD·🇺🇸 United States

Lanzado Jan 13, 2025 desde Cape Canaveral Space Force Station

Loading…

Próximos Pases (próximas 24 horas)

TLE

ActualizadoSource: CelesTrak SupGP

Época: Sep 15, 2026, 02:42 UTC

1 62605C 25008U   26258.11298611  .00011218  00000+0  40619-3 0  2589
2 62605  43.0017 287.8760 0001520 265.6083 232.7722 15.27582191    19

Sigue STARLINK-32742 en tiempo real con AllMySat

Download on the App Store